Safford, AZ

5:41 AM MST on March 28, 2017 (GMT -0700)
Safford Regional

Weather History for KSAD - July, 2013

Change the Weather History Date:

Monday, July 8, 2013

  Actual Average Record
Temperature  
Mean Temperature 88 °F -  
Max Temperature 102 °F 98 °F 108 °F (2003)
Min Temperature 75 °F 68 °F 55 °F (1955)
Cooling Degree Days 24    
Growing Degree Days 38 (Base 50)    
Moisture  
Dew Point 58 °F    
Average Humidity 40    
Maximum Humidity 76    
Minimum Humidity 16    
Precipitation  
Precipitation 0.00 in - - ()
Sea Level Pressure  
Sea Level Pressure 29.83 in    
Wind  
Wind Speed 7 mph (ENE)    
Max Wind Speed 29 mph    
Max Gust Speed 40 mph    
Visibility 10 miles    
Events Thunderstorm    
Averages and records for this station are not official NWS values.
T = Trace of Precipitation, MM = Missing Value Source: NWS Daily Summary

Daily Weather History Graph

Daily Weather History Graph

Search for Another Location

Airport or City:

Trip Planner

Search our weather history database for the weather conditions in past years. The results will help you decide how hot, cold, wet, or windy it might be!

Date:

Astronomy

Jul. 08, 2013 Rise Set
Actual Time 5:17 AM MST 7:29 PM MST
Civil Twilight 4:49 AM MST 7:58 PM MST
Nautical Twilight 4:14 AM MST 8:32 PM MST
Astronomical Twilight 3:37 AM MST 9:09 PM MST
Moon 5:44 AM MST (7/8) 7:40 PM MST (7/8)
Length of Visible Light 15h 08m
Length of Day
14h 12m
New Moon, 0% of the Moon is Illuminated
Jul 8
New Moon
Jul 15
First Quarter
Jul 22
Full
Jul 29
Last Quarter
Aug 6
New

Hourly Weather History & Observations

Time (MST) Temp. Heat Index Dew Point Humidity Pressure Visibility Wind Dir Wind Speed Gust Speed Precip Events Conditions
12:51 AM 77.0 °F - 64.0 °F 64% 29.81 in 10.0 mi Calm Calm - N/A   Partly Cloudy
1:51 AM 75.9 °F - 68.0 °F 76% 29.82 in 10.0 mi Calm Calm - N/A   Clear
2:51 AM 75.9 °F - 66.9 °F 74% 29.82 in 10.0 mi East 6.9 mph - N/A   Clear
3:51 AM 75.9 °F - 64.0 °F 67% 29.83 in 10.0 mi ESE 8.1 mph - N/A   Clear
4:51 AM 75.9 °F - 63.0 °F 64% 29.83 in 10.0 mi SE 10.4 mph - N/A   Clear
5:51 AM 77.0 °F - 63.0 °F 62% 29.84 in 10.0 mi East 10.4 mph - N/A   Clear
6:51 AM 81.0 °F 81.7 °F 61.0 °F 50% 29.83 in 10.0 mi NE 9.2 mph - N/A   Clear
7:51 AM 81.0 °F 83.3 °F 66.9 °F 62% 29.83 in 10.0 mi West 8.1 mph - N/A   Clear
8:51 AM 84.0 °F 85.4 °F 64.0 °F 51% 29.84 in 10.0 mi NW 5.8 mph - N/A   Clear
9:51 AM 86.0 °F 86.1 °F 61.0 °F 43% 29.87 in 10.0 mi West 3.5 mph - N/A   Clear
10:51 AM 91.0 °F 90.5 °F 60.1 °F 35% 29.85 in 10.0 mi Variable 3.5 mph - N/A   Clear
11:51 AM 95.0 °F 93.7 °F 57.0 °F 28% 29.83 in 10.0 mi NE 4.6 mph - N/A   Clear
12:51 PM 98.1 °F 95.7 °F 53.1 °F 22% 29.80 in 10.0 mi Calm Calm - N/A   Clear
1:51 PM 98.1 °F 95.7 °F 53.1 °F 22% 29.77 in 10.0 mi SSW 4.6 mph - N/A   Clear
2:51 PM 100.9 °F - 48.0 °F 17% 29.74 in 10.0 mi Calm Calm - N/A   Clear
3:51 PM 102.0 °F - 48.0 °F 16% 29.73 in 10.0 mi ESE 4.6 mph 16.1 mph N/A   Clear
4:31 PM 98.6 °F 96.4 °F 53.6 °F 22% 29.92 in 10.0 mi East 19.6 mph - N/A   Clear
4:46 PM 96.8 °F 95.1 °F 55.4 °F 25% 29.92 in 10.0 mi East 26.5 mph 34.5 mph N/A Thunderstorm Clear
4:51 PM 96.1 °F 94.5 °F 55.9 °F 26% 29.75 in 10.0 mi ENE 26.5 mph 34.5 mph N/A Thunderstorm Clear
5:01 PM 93.2 °F 91.3 °F 55.4 °F 28% 29.93 in 10.0 mi ENE 28.8 mph 35.7 mph N/A   Clear
5:51 PM 91.9 °F 89.5 °F 54.0 °F 27% 29.76 in 10.0 mi NE 28.8 mph 40.3 mph N/A   Clear
6:51 PM 90.0 °F 87.7 °F 54.0 °F 29% 29.81 in 10.0 mi North 11.5 mph 16.1 mph N/A   Mostly Cloudy
7:51 PM 89.1 °F 86.7 °F 53.1 °F 29% 29.83 in 10.0 mi NE 11.5 mph 20.7 mph N/A   Clear
8:51 PM 88.0 °F 86.1 °F 55.0 °F 32% 29.85 in 10.0 mi NW 3.5 mph - N/A   Clear
9:51 PM 84.9 °F 83.9 °F 57.0 °F 38% 29.84 in 10.0 mi SSE 6.9 mph - N/A   Clear
10:51 PM 84.0 °F 83.3 °F 57.0 °F 40% 29.84 in 10.0 mi East 8.1 mph - N/A   Clear
11:51 PM 84.0 °F 83.3 °F 57.0 °F 40% 29.84 in 10.0 mi NE 8.1 mph - N/A   Clear